User: anonymous   Login
Location: Unspecified
(0.0000°N, 0.0000°E)
Time: 11:34:39
(UTC+00:00)
Language:

USA 286 - Orbit

View from above orbital plane
View from above orbital plane
View from above satellite
View from above satellite

Ground track
Ground track

The orbit data is extracted from the following two-line orbital elements,

1 43446U 18036F   22269.70267182 -.00000068  00000-0  00000-0 0  9998
2 43446   3.7694  82.3263 0008517 106.5929 199.5059  1.02120063 13039
Epoch (UTC): 26 September 2022 16:51:50
Eccentricity: 0.0008517
inclination: 3.7694°
perigee height: 35240 km
apogee height: 35311 km
right ascension of ascending node: 82.3263°
argument of perigee: 106.5929°
revolutions per day: 1.02120063
mean anomaly at epoch: 199.5059°
orbit number at epoch: 1303

The dashed part of the orbit path shows where the satellite is in the earth's shadow,  

DLR